Flag for Germany Weather past 2 weeks in Kreuztal, North Rhine-Westphalia, Germany

Now
50 °F

Sunny.


Feels Like: 48 °F
Forecast: 31 / 56 °F
Wind: 6 mph from Northeast

Location: Hessen

Current Time: Apr 18, 2015 at 7:54:39 PM

Latest Report: Apr 18, 2015 at 7:20 PM


Visibility: 10 mi

Pressure: 30.21 "Hg

Humidity: 40%

Dew point: 27 °F

Location of KreuztalLocation

Historic Weather in Kreuztal — Graph

°F

Kreuztal temperature yesterday

Maximum temperature yesterday: 52 °F (at 1:20 PM)
Minimum temperature yesterday: 39 °F (at 7:20 AM)
Average temperature yesterday: 46 °F

Past Weeks' High & Low Weather Summary

 TemperatureHumidityPressure
High70 °F (Apr 15, 3:50 PM)100% (Apr 4, 6:50 AM)30.60 "Hg (Apr 4, 6:50 AM)
Low30 °F (Apr 5, 7:20 AM)35% (Apr 10, 3:50 PM)29.92 "Hg (Apr 4, 6:50 AM)
Average50 °F60%30.22 "Hg
* Reported Apr 3 6:20 PM — Apr 18 6:50 PM, Kreuztal, Weather by CustomWeather, © 2015

Note: Actual official high and low records may vary slightly from our data, if they occured in-between our weather recording intervals... More about our weather records

Advertising

Kreuztal weather history for previous 24 hours

 ConditionsComfort  
Time TempWeatherWind HumidityBarometerVisibility
6:50 PM
Sat, Apr 18
50 °FSunny.9 mph40%30.21 "Hg10 mi
6:20 PM50 °FSunny.12 mph40%30.21 "Hg10 mi
5:50 PM50 °FSunny.7 mph43%30.24 "Hg10 mi
5:20 PM52 °FSunny.8 mph41%30.24 "Hg10 mi
4:50 PM50 °FSunny.14 mph43%30.24 "Hg10 mi
4:20 PM50 °FSunny.14 mph40%30.24 "Hg10 mi
3:50 PM50 °FPassing clouds.7 mph43%30.24 "HgN/A
3:20 PM50 °FSunny.14 mph43%30.27 "Hg10 mi
2:50 PM48 °FPassing clouds.14 mph43%30.27 "HgN/A
2:20 PM48 °FScattered clouds.12 mph46%30.27 "HgN/A
1:50 PM46 °FScattered clouds.15 mph50%30.27 "HgN/A
1:20 PM46 °FScattered clouds.16 mph50%30.27 "HgN/A
12:50 PM45 °FPartly sunny.10 mph53%30.27 "HgN/A
12:20 PM46 °FPartly sunny.10 mph53%30.27 "HgN/A
11:50 AM43 °FPartly sunny.13 mph57%30.27 "HgN/A
11:20 AM45 °FPartly sunny.14 mph57%30.27 "HgN/A
10:50 AM43 °FPartly sunny.13 mph66%30.27 "HgN/A
10:20 AM39 °FPartly sunny.10 mph75%30.27 "HgN/A
9:50 AM41 °FScattered clouds.13 mph70%30.24 "HgN/A
9:20 AM41 °FScattered clouds.12 mph81%30.24 "HgN/A
8:50 AM39 °FScattered clouds.10 mph81%30.24 "HgN/A
8:20 AM39 °FPassing clouds.7 mph81%30.24 "HgN/A
7:50 AM37 °FPassing clouds.6 mph87%30.21 "HgN/A
9:50 PM
Fri, Apr 17
41 °FClear.8 mph66%30.09 "Hg10 mi
9:20 PM41 °FPassing clouds.8 mph61%30.09 "HgN/A
8:50 PM41 °FPassing clouds.9 mph61%30.07 "HgN/A
8:20 PM43 °FScattered clouds.10 mph61%30.07 "HgN/A
7:50 PM45 °FScattered clouds.14 mph57%30.04 "HgN/A
7:20 PM45 °FPassing clouds.15 mph57%30.04 "HgN/A
Weather by CustomWeather, © 2015

See weather overviewHow to use our weather pages